Content
SEND FEEDBACK

Daily
Averages
Monthly
Summary
United States of America

ROCK HILL, NEW YORK


Home > North America > United States > New York
Elevation: 1260 feet     Latitude: 41 35N     Longitude: 074 37W

WEATHER
 
SELECT A DAY
Number of Records: 454,797;   Date Range: 1/1/95 - 12/20/14
 
SHARE

PRINT THIS DATA

[ ← Previous Day ]
WEATHER ALMANAC - AUGUST 18, 2014
[ Next Day → ]
[ °C ]   °F
Weather ElementAverageHighLow
Temperature60.2 °F71.6 °F (12:15 pm)48.2 °F (3:35 am)
Dewpoint52.1 °F57.2 °F (4:15 am)46.4 °F (5:35 am)
Humidity77.2 %100 % (12:15 am)50 % (1:35 pm)
Barometer29.93 in29.97 in (2:15 am)29.90 in (12:15 am)
Wind Speed6.1 mph12.7 mph (9:55 am)
Wind Gust17.3 mph (9:55 am)
Weather ElementAverage
Visibility9.8 mi
Wind DirectionWSW (245.9 °)

Weather ElementTotal
Precipitation---
Heating Degree Days5.1 (Base 65)
Growing Degree Days9.9 (Base 50)
Averaged from 71 records on August 18, 2014
WEATHER CONDITIONS BREAKOUT
WIND DIRECTION BREAKOUT
WEATHER BY HOUR - AUGUST 18, 2014
[ °C ]   °F
Local TimeTemperatureDewpointHumidityBarometerVisibilityWind DirectionWind SpeedGust SpeedPrecipitationEventsConditions
12:15 AM53.6 °F51.8 °F94 %29.97 in10.0 miWNW (300°)5.8 mphClear
12:35 AM53.6 °F51.8 °F94 %29.97 in10.0 miWNW (300°)6.9 mphClear
12:55 AM53.6 °F51.8 °F94 %29.97 in10.0 miNW (310°)5.8 mphClear
1:15 AM53.6 °F51.8 °F94 %29.96 in10.0 miWNW (300°)6.9 mphClear
1:35 AM53.6 °F51.8 °F94 %29.96 in10.0 miWNW (300°)6.9 mphClear
1:55 AM53.6 °F51.8 °F94 %29.95 in10.0 miWNW (300°)6.9 mphClear
2:15 AM53.6 °F51.8 °F94 %29.95 in10.0 miNW (310°)6.9 mphClear
2:35 AM53.6 °F51.8 °F94 %29.95 in10.0 miWNW (300°)5.8 mphClear
2:55 AM51.8 °F51.8 °F100 %29.95 in10.0 miWNW (300°)5.8 mphClear
3:15 AM51.8 °F51.8 °F100 %29.94 in10.0 miWNW (300°)5.8 mphClear
3:35 AM51.8 °F50.0 °F94 %29.93 in10.0 miNNW (330°)3.5 mphClear
3:55 AM51.8 °F50.0 °F94 %29.94 in10.0 miWNW (300°)4.6 mphClear
4:15 AM51.8 °F50.0 °F94 %29.93 in10.0 miCalmClear
4:35 AM51.8 °F50.0 °F94 %29.93 in10.0 miWNW (290°)3.5 mphClear
4:55 AM50.0 °F48.2 °F94 %29.93 in5.0 miCalmClear
5:15 AM48.2 °F46.4 °F93 %29.93 in9.0 miNW (320°)4.6 mphClear
5:35 AM48.2 °F48.2 °F100 %29.93 in7.0 miNW (310°)3.5 mphClear
5:55 AM50.0 °F48.2 °F94 %29.93 in10.0 miNW (310°)4.6 mphClear
6:15 AM50.0 °F48.2 °F94 %29.94 in10.0 miWest (280°)4.6 mphClear
6:35 AM50.0 °F50.0 °F100 %29.95 in10.0 miWSW (240°)3.5 mphClear
6:55 AM51.8 °F50.0 °F94 %29.95 in10.0 miSW (230°)4.6 mphClear
7:15 AM51.8 °F51.8 °F100 %29.96 in10.0 miWSW (250°)3.5 mphClear
7:35 AM53.6 °F51.8 °F94 %29.96 in10.0 miCalmClear
7:55 AM53.6 °F51.8 °F94 %29.97 in10.0 miWSW (250°)3.5 mphScattered Clouds
8:15 AM55.4 °F53.6 °F94 %29.97 in10.0 miCalmMostly Cloudy
8:35 AM55.4 °F53.6 °F94 %29.97 in10.0 miWest (260°)3.5 mphOvercast
8:55 AM57.2 °F55.4 °F94 %29.97 in10.0 miWNW (300°)6.9 mphOvercast
9:15 AM59.0 °F55.4 °F88 %29.97 in10.0 miWNW (290°)5.8 mphOvercast
9:35 AM60.8 °F55.4 °F82 %29.97 in10.0 miWest (280°)9.2 mphMostly Cloudy
9:55 AM62.6 °F55.4 °F77 %29.97 in10.0 miWNW (290°)10.4 mphMostly Cloudy
10:15 AM62.6 °F55.4 °F77 %29.97 in10.0 miWest (280°)9.2 mphOvercast
10:35 AM62.6 °F57.2 °F82 %29.96 in10.0 miWest (270°)10.4 mphOvercast
10:55 AM62.6 °F55.4 °F77 %29.96 in10.0 miNW (310°)9.2 mphOvercast
11:15 AM64.4 °F55.4 °F73 %29.95 in10.0 miWNW (290°)11.5 mphMostly Cloudy
11:35 AM64.4 °F53.6 °F68 %29.95 in10.0 miWest (270°)6.9 mphMostly Cloudy
11:55 AM64.4 °F53.6 °F68 %29.94 in10.0 miWest (270°)10.4 mphOvercast
12:15 PM66.2 °F53.6 °F64 %29.94 in10.0 miWNW (300°)9.2 mphMostly Cloudy
12:35 PM66.2 °F53.6 °F64 %29.94 in10.0 miNorth (350°)5.8 mphMostly Cloudy
12:55 PM68.0 °F53.6 °F60 %29.93 in10.0 miWest (260°)6.9 mph17.3 mphMostly Cloudy
1:15 PM69.8 °F53.6 °F56 %29.93 in10.0 miWNW (290°)10.4 mphMostly Cloudy
1:35 PM69.8 °F53.6 °F56 %29.92 in10.0 miWest (270°)10.4 mphMostly Cloudy
1:55 PM68.0 °F51.8 °F56 %29.92 in5.0 miNW (310°)11.5 mphMostly Cloudy
2:15 PM71.6 °F53.6 °F53 %29.91 in10.0 miWest (260°)5.8 mphPartly Cloudy
2:35 PM71.6 °F51.8 °F50 %29.91 in10.0 miWest (280°)10.4 mphScattered Clouds
2:55 PM71.6 °F51.8 °F50 %29.91 in10.0 miNW (320°)9.2 mphPartly Cloudy
3:15 PM71.6 °F51.8 °F50 %29.91 in10.0 miWest (260°)12.7 mphScattered Clouds
3:35 PM71.6 °F51.8 °F50 %29.90 in10.0 miNNW (340°)11.5 mphScattered Clouds
3:55 PM71.6 °F53.6 °F53 %29.90 in10.0 miWNW (300°)11.5 mph16.1 mphScattered Clouds
4:15 PM71.6 °F51.8 °F50 %29.90 in10.0 miWest (280°)6.9 mphScattered Clouds
4:35 PM71.6 °F51.8 °F50 %29.90 in10.0 miWNW (300°)8.1 mph16.1 mphScattered Clouds
4:55 PM71.6 °F51.8 °F50 %29.90 in10.0 miWNW (290°)10.4 mphClear
5:15 PM71.6 °F51.8 °F50 %29.90 in10.0 miNW (310°)9.2 mphPartly Cloudy
5:35 PM71.6 °F51.8 °F50 %29.90 in10.0 miWest (280°)4.6 mphPartly Cloudy
5:55 PM71.6 °F51.8 °F50 %29.90 in10.0 miNW (310°)11.5 mphClear
6:15 PM69.8 °F51.8 °F53 %29.91 in10.0 miNW (310°)10.4 mphClear
6:35 PM69.8 °F51.8 °F53 %29.90 in10.0 miNW (320°)8.1 mphClear
6:55 PM68.0 °F51.8 °F56 %29.90 in10.0 miNW (310°)6.9 mphClear
7:15 PM68.0 °F51.8 °F56 %29.90 in10.0 miWNW (300°)4.6 mphClear
7:35 PM66.2 °F51.8 °F60 %29.90 in10.0 miWNW (300°)5.8 mphClear
7:55 PM64.4 °F51.8 °F64 %29.91 in10.0 miNW (310°)5.8 mphClear
8:15 PM62.6 °F51.8 °F68 %29.91 in10.0 miNW (310°)3.5 mphClear
8:35 PM60.8 °F51.8 °F72 %29.92 in10.0 miCalmClear
8:55 PM60.8 °F51.8 °F72 %29.93 in10.0 miCalmClear
9:15 PM59.0 °F51.8 °F77 %29.93 in10.0 miCalmClear
9:35 PM57.2 °F51.8 °F82 %29.93 in10.0 miNNW (330°)3.5 mphClear
9:55 PM55.4 °F51.8 °F88 %29.94 in10.0 miCalmClear
10:15 PM55.4 °F51.8 °F88 %29.94 in10.0 miNNW (330°)4.6 mphClear
10:35 PM53.6 °F51.8 °F94 %29.93 in10.0 miNNE (30°)3.5 mphClear
10:55 PM51.8 °F50.0 °F94 %29.94 in10.0 miNNE (30°)3.5 mphClear
11:15 PM55.4 °F51.8 °F88 %29.93 in10.0 miNNE (30°)3.5 mphClear
11:35 PM53.6 °F51.8 °F94 %29.93 in10.0 miCalmClear
Hourly data recorded from KMSV, located miles away from Rock Hill, New York







STORIES FROM OUR PARTNERS